CW3330 Weather Reports


time (UTC)temp
C
wind
direction
speed
KPH
gust
KPH
rain 1hr
cm
rain 24hr
cm
rain mn
cm
humidity
%
barometer
mb
20260503001233 12 273 0.0 3.2 0.00 0.00 0.00 90 1013.2
20260503000234 12 273 3.2 4.8 0.00 0.00 0.00 90 1013.1
20260502235247 12 275 0.0 0.0 0.00 0.00 0.00 90 1013.2
20260502234708 12 275 0.0 0.0 0.00 0.00 0.00 89 1013.1
20260502233249 12 275 0.0 0.0 0.00 0.00 0.00 90 1013.2
20260502232233 12 275 0.0 0.0 0.00 0.00 0.00 89 1013.2
20260502231233 12 275 0.0 0.0 0.00 0.00 0.00 89 1013.2
20260502230234 12 275 0.0 0.0 0.00 0.00 0.00 88 1013.3
20260502225234 12 275 0.0 0.0 0.00 0.00 0.00 88 1013.3
20260502224716 13 275 0.0 0.0 0.00 0.00 0.00 88 1013.3
20260502223234 13 275 0.0 0.0 0.00 0.00 0.00 87 1013.4
20260502222235 13 275 0.0 4.8 0.00 0.00 0.00 87 1013.3
20260502221235 13 275 3.2 4.8 0.00 0.00 0.00 86 1013.2
20260502220251 13 275 0.0 0.0 0.00 0.00 0.00 86 1013.2
20260502215236 13 275 0.0 0.0 0.00 0.00 0.00 86 1013.4
20260502214235 13 275 0.0 0.0 0.00 0.00 0.00 86 1013.6
20260502213234 13 275 0.0 0.0 0.00 0.00 0.00 85 1013.6
20260502212234 13 275 0.0 0.0 0.00 0.00 0.00 85 1013.6
20260502211233 14 275 0.0 3.2 0.00 0.00 0.00 84 1013.8
20260502210234 14 275 0.0 4.8 0.00 0.00 0.00 83 1013.8
20260502205714 14 275 1.6 3.2 0.00 0.00 0.00 83 1013.9
20260502204233 14 275 1.6 4.8 0.00 0.00 0.00 82 1013.8
20260502203234 15 275 1.6 4.8 0.00 0.00 0.00 82 1013.9
20260502202235 15 275 3.2 4.8 0.00 0.00 0.00 81 1013.8
20260502201233 15 275 0.0 6.4 0.00 0.00 0.00 80 1013.9
20260502200236 15 276 3.2 4.8 0.00 0.00 0.00 79 1013.9
20260502194231 15 276 3.2 4.8 0.00 0.00 0.00 76 1013.9
20260502193233 15 276 3.2 4.8 0.00 0.00 0.00 75 1013.9
20260502192233 16 277 3.2 6.4 0.00 0.00 0.00 74 1013.8
20260502191231 16 274 3.2 6.4 0.00 0.00 0.00 72 1013.8
20260502190231 16 266 6.4 11.3 0.00 0.00 0.00 70 1013.9
20260502185231 17 275 6.4 12.9 0.00 0.00 0.00 67 1013.9
20260502184233 17 273 4.8 14.5 0.00 0.00 0.00 66 1013.8
20260502183248 17 283 4.8 16.1 0.00 0.00 0.00 61 1013.8
20260502182232 18 265 4.8 12.9 0.00 0.00 0.00 58 1013.7
20260502181231 18 309 3.2 12.9 0.00 0.00 0.00 55 1013.7
20260502180231 18 339 4.8 12.9 0.00 0.00 0.00 55 1013.7
20260502170231 21 350 9.7 17.7 0.00 0.00 0.00 52 1013.3
20260502164231 22 319 8.0 16.1 0.00 0.00 0.00 45 1013.3
20260502163709 22 314 6.4 17.7 0.00 0.00 0.00 43 1013.3
20260502161231 23 256 8.0 17.7 0.00 0.00 0.00 37 1013.4
20260502160241 23 282 6.4 14.5 0.00 0.00 0.00 39 1013.5
20260502152231 25 263 6.4 20.9 0.00 0.00 0.00 35 1013.9
20260502151234 25 308 6.4 22.5 0.00 0.00 0.00 34 1013.9
20260502150232 24 260 8.0 22.5 0.00 0.00 0.00 33 1014.0
20260502123232 25 178 12.9 30.6 0.00 0.00 0.00 29 1015.6
20260502122231 25 238 11.3 30.6 0.00 0.00 0.00 34 1015.6
20260502121238 25 203 12.9 29.0 0.00 0.00 0.00 33 1015.7
20260502120231 25 192 16.1 30.6 0.00 0.00 0.00 32 1015.9
20260502115232 25 215 14.5 33.8 0.00 0.00 0.00 28 1015.9
20260502114725 25 198 16.1 29.0 0.00 0.00 0.00 34 1016.1
20260502113231 25 212 9.7 27.4 0.00 0.00 0.00 35 1016.2
20260502112231 25 187 17.7 27.4 0.00 0.00 0.00 35 1016.3
20260502111231 25 147 12.9 22.5 0.00 0.00 0.00 36 1016.3
20260502110247 24 236 11.3 25.7 0.00 0.00 0.00 36 1016.4
20260502105716 24 199 16.1 35.4 0.00 0.00 0.00 36 1016.4
20260502104230 24 203 12.9 30.6 0.00 0.00 0.00 37 1016.5
20260502103231 24 188 17.7 29.0 0.00 0.00 0.00 36 1016.6
20260502102231 23 233 14.5 27.4 0.00 0.00 0.00 37 1016.8
20260502101231 23 219 11.3 32.2 0.00 0.00 0.00 34 1016.8
20260502100234 23 205 14.5 25.7 0.00 0.00 0.00 43 1017.0
20260502091234 21 175 9.7 20.9 0.00 0.00 0.00 47 1017.3
20260502090221 21 194 11.3 19.3 0.00 0.00 0.00 49 1017.4
20260502071204 17 229 4.8 25.7 0.00 0.00 0.00 59 1018.1
20260502070203 17 165 12.9 20.9 0.00 0.00 0.00 58 1018.3
20260502065202 16 219 11.3 20.9 0.00 0.00 0.00 60 1018.5
20260502064656 16 196 8.0 20.9 0.00 0.00 0.00 61 1018.5
20260502063203 16 201 9.7 20.9 0.00 0.00 0.00 61 1018.4
20260502062203 15 207 11.3 22.5 0.00 0.00 0.00 61 1018.5
20260502061646 15 202 8.0 14.5 0.00 0.00 0.00 64 1018.6
20260502060203 14 177 8.0 12.9 0.00 0.00 0.00 66 1018.7
20260502055203 14 196 8.0 14.5 0.00 0.00 0.00 67 1018.7
20260502054638 13 175 6.4 14.5 0.00 0.00 0.00 67 1018.6
20260502053203 13 190 6.4 14.5 0.00 0.00 0.00 68 1018.7
20260502052204 13 196 9.7 16.1 0.00 0.00 0.00 68 1018.7
20260502051644 12 190 4.8 8.0 0.00 0.00 0.00 70 1018.7
20260502050203 12 182 6.4 11.3 0.00 0.00 0.00 70 1018.8
20260502045204 12 178 6.4 12.9 0.00 0.00 0.00 70 1018.7
20260502044204 12 183 4.8 12.9 0.00 0.00 0.00 71 1018.7
20260502043641 11 187 6.4 8.0 0.00 0.00 0.00 71 1018.7
20260502042203 11 185 6.4 11.3 0.00 0.00 0.00 72 1018.7
20260502041204 11 186 4.8 8.0 0.00 0.00 0.00 71 1018.8
20260502040700 11 195 4.8 11.3 0.00 0.00 0.00 72 1018.8
20260502035204 11 186 4.8 8.0 0.00 0.00 0.00 72 1019.0
20260502034204 11 182 3.2 6.4 0.00 0.00 0.00 73 1018.9
20260502033203 10 181 3.2 6.4 0.00 0.00 0.00 74 1019.0
20260502032204 10 180 4.8 6.4 0.00 0.00 0.00 75 1019.1
20260502031205 10 180 3.2 4.8 0.00 0.00 0.00 76 1019.3
20260502030203 10 179 1.6 4.8 0.00 0.00 0.00 76 1019.4
20260502025203 10 179 0.0 3.2 0.00 0.00 0.00 75 1019.5
20260502024204 11 179 3.2 6.4 0.00 0.00 0.00 74 1019.6
20260502023203 11 178 3.2 6.4 0.00 0.00 0.00 74 1019.6
20260502022203 11 179 3.2 4.8 0.00 0.00 0.00 74 1019.8
20260502021203 11 179 3.2 6.4 0.00 0.00 0.00 68 1019.9
20260502020656 11 177 3.2 6.4 0.00 0.00 0.00 73 1020.0
20260502015203 11 175 3.2 8.0 0.00 0.00 0.00 73 1020.1
20260502014204 11 175 3.2 8.0 0.00 0.00 0.00 73 1020.2
20260502013204 11 182 3.2 4.8 0.00 0.00 0.00 73 1020.3
20260502012210 11 182 3.2 6.4 0.00 0.00 0.00 72 1020.4
20260502011204 11 182 3.2 4.8 0.00 0.00 0.00 71 1020.5
20260502010203 11 182 3.2 8.0 0.00 0.00 0.00 71 1020.5
20260502005204 11 171 4.8 8.0 0.00 0.00 0.00 71 1020.7
20260502004204 11 178 4.8 8.0 0.00 0.00 0.00 71 1020.9
20260502003204 11 173 3.2 8.0 0.00 0.00 0.00 72 1021.0
20260502002203 12 173 3.2 8.0 0.00 0.00 0.00 71 1021.1